Simultaneous Nadir Overpasses (SNOs) Predictions

Prediction of SNOs between GOES-15 and METOP-B Satellite Orbit:

Table of predicted SNOs for the next 14.0 days since TLE Epoch: 2/1/2025
Index Date Time (GOES-15) GOES-15 Lat,Lon METOP-B Lat,Lon Distance(km) Time Diff (sec)
1 02/01/2025 17:01:36 -0.01, 61.73 0.17, 62.49 87.05 80
2 02/03/2025 05:20:34 0.01, 61.76 0.84, 57.89 441.02 80
3 02/04/2025 05:02:39 0.01, 61.78 -0.25, 62.86 123.57 80
4 02/05/2025 17:21:45 -0.01, 61.80 -0.80, 58.22 407.97 80
5 02/06/2025 16:58:30 -0.01, 61.83 0.30, 63.19 155.21 80
6 02/08/2025 05:17:27 0.01, 61.88 0.76, 58.59 375.06 80
7 02/09/2025 04:59:32 0.01, 61.90 -0.35, 63.56 188.94 80
8 02/10/2025 17:18:38 -0.01, 61.93 -0.68, 58.92 342.04 80
9 02/11/2025 16:55:22 -0.02, 61.96 0.44, 63.89 221.15 80
10 02/13/2025 05:14:20 0.01, 62.02 0.61, 59.29 310.00 80
11 02/14/2025 04:56:23 0.02, 62.04 -0.45, 64.27 254.24 80
